Weather History for PAGY - August, 2013

Change the Weather History Date:

Tuesday, August 27, 2013

  Actual Average Record
Temperature  
Mean Temperature 62 °F -  
Max Temperature 75 °F 58 °F 75 °F (2013)
Min Temperature 50 °F 47 °F 34 °F (1984)
Degree Days  
Heating Degree Days 4    
Growing Degree Days 12 (Base 50)    
Moisture  
Dew Point 49 °F    
Average Humidity 75    
Maximum Humidity 94    
Minimum Humidity 38    
Precipitation  
Precipitation 0.01 in - - ()
Sea Level Pressure  
Sea Level Pressure 29.76 in    
Wind  
Wind Speed 2 mph (SSW)    
Max Wind Speed 14 mph    
Max Gust Speed 18 mph    
Visibility 9 miles    
Events Rain    
Averages and records for this station are not official NWS values.
T = Trace of Precipitation, MM = Missing Value Source: NWS Daily Summary

Daily Weather History Graph

Daily Weather History Graph

Search for Another Location

Airport or City:

Trip Planner

Search our weather history database for the weather conditions in past years. The results will help you decide how hot, cold, wet, or windy it might be!

Date:

Astronomy

Aug. 27, 2013 Rise Set
Actual Time 5:47 AM AKDT 8:16 PM AKDT
Civil Twilight 5:01 AM AKDT 9:01 PM AKDT
Nautical Twilight 4:01 AM AKDT 10:01 PM AKDT
Astronomical Twilight 2:38 AM AKDT 11:21 PM AKDT
Moon 10:22 PM AKDT (8/27) 2:44 PM AKDT (8/27)
Length of Visible Light 16h 00m
Length of Day
14h 29m
Waning Gibbous, 55% of the Moon is Illuminated
Aug 27
Waning Gibbous
Aug 28
Last Quarter
Sep 5
New
Sep 12
First Quarter
Sep 19
Full

Hourly Weather History & Observations

Time (AKDT) Temp. Dew Point Humidity Pressure Visibility Wind Dir Wind Speed Gust Speed Precip Events Conditions
12:53 AM 54.0 °F 52.0 °F 93% 29.75 in 10.0 mi Calm Calm - N/A   Clear
1:53 AM 54.0 °F 52.0 °F 93% 29.75 in 10.0 mi Calm Calm - N/A   Clear
2:53 AM 53.1 °F 51.1 °F 93% 29.75 in 10.0 mi Calm Calm - N/A   Clear
3:11 AM 51.8 °F 50.0 °F 94% 29.75 in 2.5 mi NE 3.5 mph - N/A   Clear
3:18 AM 51.8 °F 48.2 °F 88% 29.74 in 5.0 mi Calm Calm - N/A   Clear
3:53 AM 51.1 °F 48.9 °F 92% 29.74 in 4.0 mi Calm Calm - N/A   Clear
4:26 AM 51.8 °F 48.2 °F 88% 29.75 in 2.5 mi Calm Calm - 0.01 in   Clear
4:33 AM 51.8 °F 48.2 °F 88% 29.75 in 10.0 mi Calm Calm - 0.01 in   Clear
4:53 AM 51.1 °F 48.9 °F 92% 29.76 in 7.0 mi Calm Calm - 0.01 in   Clear
5:53 AM 50.0 °F 46.9 °F 89% 29.75 in 10.0 mi NE 3.5 mph - N/A   Clear
6:53 AM 50.0 °F 48.0 °F 93% 29.76 in 10.0 mi NNE 4.6 mph - N/A   Clear
7:53 AM 52.0 °F 48.9 °F 89% 29.75 in 10.0 mi Calm Calm - N/A   Clear
8:53 AM 54.0 °F 51.1 °F 90% 29.76 in 10.0 mi Calm Calm - N/A   Clear
9:53 AM 55.9 °F 51.1 °F 84% 29.75 in 10.0 mi SSW 3.5 mph - N/A   Clear
10:53 AM 57.0 °F 51.1 °F 81% 29.75 in 10.0 mi Calm Calm - N/A   Clear
11:53 AM 69.1 °F 48.0 °F 47% 29.75 in 10.0 mi Calm Calm - N/A   Partly Cloudy
12:53 PM 72.0 °F 46.0 °F 40% 29.74 in 10.0 mi Variable 3.5 mph - N/A   Partly Cloudy
1:53 PM 73.0 °F 46.0 °F 38% 29.74 in 10.0 mi Variable 5.8 mph - N/A   Partly Cloudy
2:53 PM 73.0 °F 46.0 °F 38% 29.74 in 10.0 mi Calm Calm - N/A   Partly Cloudy
3:53 PM 70.0 °F 48.0 °F 46% 29.74 in 10.0 mi Calm Calm - N/A   Overcast
4:53 PM 63.0 °F 48.9 °F 60% 29.74 in 10.0 mi SSW 13.8 mph - N/A   Overcast
5:53 PM 64.0 °F 51.1 °F 63% 29.76 in 10.0 mi SW 9.2 mph 18.4 mph N/A   Overcast
6:53 PM 64.0 °F 48.9 °F 58% 29.77 in 10.0 mi SSW 11.5 mph - N/A   Overcast
7:53 PM 60.1 °F 50.0 °F 69% 29.79 in 10.0 mi Variable 3.5 mph - N/A   Overcast
8:53 PM 63.0 °F 50.0 °F 63% 29.81 in 10.0 mi SSW 10.4 mph 18.4 mph N/A   Mostly Cloudy
9:53 PM 57.9 °F 50.0 °F 75% 29.83 in 10.0 mi SW 6.9 mph - N/A   Overcast
10:53 PM 57.9 °F 51.1 °F 78% 29.85 in 10.0 mi Calm Calm - N/A   Overcast
11:53 PM 57.9 °F 52.0 °F 81% 29.86 in 10.0 mi Calm Calm - 0.00 in Rain Light Rain